Regional Weather Roundup
Issued by NWS

Home | Current Version | Previous Version | Graphics & Text | Print | Product List | Glossary Off
Versions: 1 2 3 4 5 6 7 8 9 10 11 12 13 14 15 16 17 18 19 20 21 22 23 24 25 26 27 28 29 30 31 32 33 34 35 36 37 38 39 40 41 42 43 44 45 46 47 48 49 50

000
ASUS43 KDMX 031801
RWRIA

WEATHER ROUNDUP FOR IOWA
NATIONAL WEATHER SERVICE DES MOINES IA
1200 PM CST SAT DEC 03 2016

NOTE: "FAIR" INDICATES FEW OR NO CLOUDS BELOW 12,000 FEET WITH NO
SIGNIFICANT WEATHER AND/OR OBSTRUCTIONS TO VISIBILITY.

* - THESE STATIONS ARE NOT NWS STATIONS...THUS NOT UNDER NWS
QUALITY CONTROL.  THEY ALSO DO NOT REPORT WEATHER SUCH
AS PRECIPITATION OR FOG.

IAZ001>003-012>014-020>022-031>034-043>046-031900-
   NORTHWEST IOWA

CITY           SKY/WX    TMP DP  RH WIND       PRES   REMARKS
CARROLL *      MOSUNNY   37  32  81 S9        30.27S WCI  31
CHEROKEE *     CLOUDY    37  32  84 S12       30.24F WCI  29
DENISON *      CLOUDY    36  30  80 S12       30.24F WCI  27
LE MARS *      PTSUNNY   36  32  87 S13       30.24S WCI  27
ORANGE CITY *  CLOUDY    36  32  87 S13       30.21S WCI  27
SHELDON *      CLOUDY    36  34  93 MISG      30.20S
SIOUX CITY     CLOUDY    35  31  85 S7        30.25F WCI  29
6HR MIN TEMP:  23; 6HR MAX TEMP:  35;

SPENCER        CLOUDY    36  31  82 S17       30.23F WCI  26
6HR MIN TEMP:  27; 6HR MAX TEMP:  36;

STORM LAKE *   MOSUNNY   36  32  87 S15       30.24S WCI  26
$$

IAZ055>058-069>071-079>083-090>094-031900-
   SOUTHWEST IOWA

CITY           SKY/WX    TMP DP  RH WIND       PRES   REMARKS
ATLANTIC *     CLOUDY    39  32  75 S8        30.27F WCI  34
AUDUBON *      CLOUDY    37  30  75 S7        30.28F WCI  32
CLARINDA *       N/A     37  34  87 S6G12     30.30F WCI  33
COUNCIL BLFS * CLOUDY    36  32  87 S8        30.27F WCI  29
CRESTON *      CLOUDY    37  32  81 SE12      30.29F WCI  30
HARLAN  *      CLOUDY    36  32  87 S7        30.30F WCI  30
LAMONI         MOSUNNY   39  32  76 SE7       30.28F WCI  34
6HR MIN TEMP:  23; 6HR MAX TEMP:  39;

RED OAK *      CLOUDY    37  32  81 S9        30.28F WCI  31
SHENANDOAH *   MOSUNNY   37  32  81 SE7       30.29F WCI  32
$$

IAZ047>049-059>061-072>074-084-031900-
   CENTRAL IOWA

CITY           SKY/WX    TMP DP  RH WIND       PRES   REMARKS
AMES           MOSUNNY   39  31  72 S5        30.29F
6HR MIN TEMP:  33; 6HR MAX TEMP:  39;

ANKENY *       CLOUDY    41  32  70 S8        30.31F
BOONE *        MOSUNNY   39  30  70 S9        30.28S WCI  33
CHARITON *       N/A     39  32  75 SE12      30.30S WCI  32
DES MOINES     CLOUDY    42  30  62 S9        30.30F
6HR MIN TEMP:  36; 6HR MAX TEMP:  43;

GRINNELL*      CLOUDY    38  30  73 SW6       30.31F WCI  33
KNOXVILLE *    CLOUDY    39  28  65 SE10      30.30F WCI  32
NEWTON *       PTSUNNY   39  30  70 S8        30.30F WCI  34
PELLA *        CLOUDY    39  30  70 S5        30.33F
PERRY *          N/A     38  32  78 S8        30.30S WCI  32
$$

IAZ004>006-015-016-023>025-035-036-031900-
   NORTH CENTRAL IOWA

CITY           SKY/WX    TMP DP  RH WIND       PRES   REMARKS
ALGONA *       CLOUDY    36  30  80 S7G13     30.25F WCI  30
CLARION *      CLOUDY    37  30  75 S6        30.27F WCI  33
ESTHERVILLE    CLOUDY    32  28  85 S12       30.23F WCI  23
6HR MIN TEMP:  28; 6HR MAX TEMP:  32;

FORT DODGE *   PTSUNNY   39  27  60 S9        30.28S WCI  33
MASON CITY     SUNNY     34  24  67 SE5       30.28S WCI  30
6HR MIN TEMP:  29; 6HR MAX TEMP:  34;

WEBSTER CITY * CLOUDY    39  30  70 S8G14     30.26S WCI  34
IOWA FALLS *   CLOUDY    38  29  69 S8        30.30F WCI  33
$$

IAZ007>011-017>019-026>030-037>042-050>054-066-031900-
   NORTHEAST IOWA

CITY           SKY/WX    TMP DP  RH WIND       PRES   REMARKS
CEDAR RAPIDS   CLOUDY    38  29  70 SW7       30.31F WCI  33
6HR MIN TEMP:  31; 6HR MAX TEMP:  39;

CHARLES CITY * CLOUDY    34  23  64 CALM      30.29S
CLINTON *      CLOUDY    37  26  64 SW8       30.35S WCI  31
DECORAH *      CLOUDY    32  23  69 VRB6      30.28R WCI  26
DUBUQUE        CLOUDY    33  25  72 S9        30.32S WCI  25
6HR MIN TEMP:  29; 6HR MAX TEMP:  33;

MONTICELLO *   CLOUDY    36  27  69 S5        30.32F WCI  32
OELWEIN *      CLOUDY    36  27  69 CALM      30.30F
WATERLOO       CLOUDY    37  25  61 CALM      30.31S
6HR MIN TEMP:  31; 6HR MAX TEMP:  37;

$$

IAZ064-065-067-068-078-031900-
   EAST CENTRAL IOWA

CITY           SKY/WX    TMP DP  RH WIND       PRES   REMARKS
DAVENPORT      CLOUDY    37  26  64 W3        30.35F
6HR MIN TEMP:  32; 6HR MAX TEMP:  37;

IOWA CITY      CLOUDY    39  27  62 S6        30.35F WCI  35
6HR MIN TEMP:  34; 6HR MAX TEMP:  39;

MUSCATINE *    CLOUDY    39  27  60 SW5       30.36F
QUAD CITIES    CLOUDY    38  25  59 S7        30.36S WCI  33
6HR MIN TEMP:  34; 6HR MAX TEMP:  38;

$$

IAZ062-063-075>077-085>089-095>099-031900-
   SOUTHEAST IOWA

CITY           SKY/WX    TMP DP  RH WIND       PRES   REMARKS
BURLINGTON     CLOUDY    37  28  70 SE6       30.35F WCI  32
6HR MIN TEMP:  33; 6HR MAX TEMP:  37;

FAIRFIELD *    CLOUDY    39  27  60 SE8       30.33F WCI  34
FORT MADISON * CLOUDY    37  28  70 E6        30.35F WCI  33
KEOKUK *       CLOUDY    39  30  70 SE7       30.35F WCI  34
OSKALOOSA *    CLOUDY    38  29  71 SE7       30.32F WCI  33
CENTERVILLE *    N/A     39  32  75 E7        30.32F WCI  34
OTTUMWA        CLOUDY    39  29  67 S9        30.32F WCI  33
6HR MIN TEMP:  33; 6HR MAX TEMP:  40;

WASHINGTON *   CLOUDY    39  28  65 S7        30.34F WCI  34
$$

ABBREVIATIONS USED IN REMARKS
   TC - TEMPERATURES IN CELSIUS
  WCI - WIND CHILL INDEX
   HX - HEAT INDEX
  VSB - VISIBILITY
$$





USA.gov is the U.S. government's official web portal to all federal, state and local government web resources and services.